SWR770 EDDH-EDDF

Flight info

Callsign SWR770
Flight time 0h 58m
Altitude 30000
Route AMLUH2C AMLUH M852 DENIX DCT RIMET/N0475F310 T157 KOKEB/N0427F230 T157 KERAX KERAX5A
Aircraft A333/H-SDE3GHIJ2J3J5M1RVWXY/LB2D1

Departure

Time 2026-05-06 15:28
Airport Hamburg Helmut Schmidt Airport (EDDH)

Arrival

Time 2026-05-06 16:26
Airport Frankfurt Main Airport (EDDF)
Time Latitude Longitude Altitude Speed Heading
2026-05-06 14:06 53.63206 10.00342 46 ft 0 kts 86°
2026-05-06 14:07 53.63010 10.00345 47 ft 0 kts 123°
2026-05-06 15:08 53.63012 10.00340 46 ft 1 kts 122°
2026-05-06 15:09 53.63019 10.00323 46 ft 2 kts 122°
2026-05-06 15:09 53.63028 10.00297 45 ft 3 kts 122°
2026-05-06 15:09 53.63038 10.00270 44 ft 3 kts 122°
2026-05-06 15:09 53.63050 10.00239 43 ft 4 kts 122°
2026-05-06 15:13 53.63050 10.00238 43 ft 0 kts 122°
2026-05-06 15:13 53.63051 10.00236 43 ft 1 kts 122°
2026-05-06 15:13 53.63054 10.00228 43 ft 1 kts 158°
2026-05-06 15:14 53.63059 10.00225 43 ft 1 kts 186°
2026-05-06 15:14 53.63070 10.00227 43 ft 2 kts 182°
2026-05-06 15:14 53.63081 10.00227 42 ft 2 kts 175°
2026-05-06 15:14 53.63091 10.00225 42 ft 2 kts 174°
2026-05-06 15:15 53.63102 10.00224 42 ft 2 kts 175°
2026-05-06 15:15 53.63113 10.00222 42 ft 2 kts 176°
2026-05-06 15:15 53.63123 10.00221 42 ft 2 kts 176°
2026-05-06 15:15 53.63132 10.00220 42 ft 2 kts 176°
2026-05-06 15:16 53.63142 10.00218 42 ft 2 kts 176°
2026-05-06 15:16 53.63147 10.00217 42 ft 0 kts 176°
2026-05-06 15:19 53.63146 10.00217 42 ft 1 kts 176°
2026-05-06 15:19 53.63114 10.00221 42 ft 7 kts 176°
2026-05-06 15:19 53.63053 10.00202 42 ft 11 kts 207°
2026-05-06 15:19 53.62971 10.00120 42 ft 13 kts 212°
2026-05-06 15:20 53.62885 10.00041 40 ft 12 kts 207°
2026-05-06 15:20 53.62856 9.99993 39 ft 0 kts 238°
2026-05-06 15:20 53.62849 9.99976 39 ft 1 kts 240°
2026-05-06 15:22 53.62849 9.99975 39 ft 1 kts 240°
2026-05-06 15:23 53.62822 9.99887 38 ft 12 kts 246°
2026-05-06 15:23 53.62884 9.99730 35 ft 10 kts 333°
2026-05-06 15:23 53.62890 9.99725 35 ft 0 kts 334°
2026-05-06 15:27 53.62893 9.99723 35 ft 4 kts 334°
2026-05-06 15:27 53.63117 9.99530 36 ft 75 kts 333°
2026-05-06 15:27 53.63810 9.98931 41 ft 144 kts 334°
2026-05-06 15:27 53.64778 9.98087 505 ft 162 kts 337°
2026-05-06 15:28 53.65771 9.97218 1231 ft 167 kts 339°
2026-05-06 15:28 53.66806 9.96327 2064 ft 171 kts 340°
2026-05-06 15:28 53.67870 9.95437 2913 ft 180 kts 341°
2026-05-06 15:28 53.69045 9.94555 3870 ft 195 kts 354°
2026-05-06 15:29 53.70364 9.94617 4903 ft 208 kts
2026-05-06 15:29 53.72061 9.94754 5042 ft 283 kts
2026-05-06 15:29 53.74165 9.95779 5157 ft 349 kts 30°
2026-05-06 15:29 53.76163 9.97856 6359 ft 333 kts 38°
2026-05-06 15:30 53.77656 10.00861 6666 ft 342 kts 61°
2026-05-06 15:30 53.78287 10.04670 7869 ft 340 kts 85°
2026-05-06 15:30 53.77984 10.08522 9132 ft 335 kts 107°
2026-05-06 15:30 53.76953 10.11910 9922 ft 318 kts 120°
2026-05-06 15:31 53.75814 10.15048 9753 ft 310 kts 120°
2026-05-06 15:31 53.74737 10.18060 9868 ft 292 kts 116°
2026-05-06 15:31 53.74168 10.21259 9839 ft 277 kts 95°
2026-05-06 15:32 53.73722 10.27492 9910 ft 283 kts 110°
2026-05-06 15:32 53.72552 10.30311 10274 ft 306 kts 136°
2026-05-06 15:32 53.70681 10.32146 10698 ft 327 kts 161°
2026-05-06 15:32 53.68397 10.32595 11303 ft 339 kts 185°
2026-05-06 15:33 53.66091 10.31749 12218 ft 339 kts 195°
2026-05-06 15:33 53.63800 10.30773 13050 ft 343 kts 195°
2026-05-06 15:33 53.61521 10.29800 13996 ft 342 kts 195°
2026-05-06 15:33 53.59210 10.28810 14779 ft 346 kts 195°
2026-05-06 15:34 53.56903 10.27823 15565 ft 349 kts 195°
2026-05-06 15:34 53.54523 10.27126 16376 ft 351 kts 182°
2026-05-06 15:34 53.52103 10.27811 17076 ft 357 kts 164°
2026-05-06 15:34 53.49726 10.29022 17873 ft 359 kts 166°
2026-05-06 15:35 53.47321 10.30167 18534 ft 363 kts 166°
2026-05-06 15:35 53.44920 10.31298 19213 ft 366 kts 166°
2026-05-06 15:35 53.42458 10.32494 19853 ft 371 kts 162°
2026-05-06 15:35 53.39987 10.33774 20427 ft 374 kts 170°
2026-05-06 15:36 53.37438 10.34738 21060 ft 378 kts 167°
2026-05-06 15:36 53.34880 10.35862 21675 ft 382 kts 166°
2026-05-06 15:36 53.32325 10.37006 22253 ft 386 kts 166°
2026-05-06 15:36 53.29716 10.38176 22849 ft 390 kts 166°
2026-05-06 15:37 53.27092 10.39351 23373 ft 394 kts 166°
2026-05-06 15:37 53.24441 10.40536 23928 ft 397 kts 166°
2026-05-06 15:37 53.21798 10.41717 24504 ft 400 kts 166°
2026-05-06 15:37 53.19068 10.42934 25099 ft 403 kts 166°
2026-05-06 15:38 53.16375 10.44134 25653 ft 406 kts 166°
2026-05-06 15:38 53.13614 10.45302 26238 ft 408 kts 169°
2026-05-06 15:38 53.10801 10.45452 26723 ft 411 kts 185°
2026-05-06 15:38 53.07918 10.45023 27248 ft 414 kts 185°
2026-05-06 15:39 53.05075 10.44624 27777 ft 417 kts 184°
2026-05-06 15:39 53.02189 10.44226 28293 ft 420 kts 184°
2026-05-06 15:39 52.99269 10.43824 28881 ft 421 kts 184°
2026-05-06 15:39 52.96355 10.43425 29588 ft 419 kts 184°
2026-05-06 15:40 52.93474 10.43031 29875 ft 419 kts 184°
2026-05-06 15:40 52.90580 10.42637 29742 ft 415 kts 184°
2026-05-06 15:40 52.84899 10.41863 29843 ft 419 kts 184°
2026-05-06 15:41 52.81974 10.41466 29992 ft 429 kts 184°
2026-05-06 15:41 52.78951 10.41056 30092 ft 441 kts 184°
2026-05-06 15:41 52.75900 10.40640 30850 ft 435 kts 184°
2026-05-06 15:41 52.72921 10.40237 30803 ft 431 kts 184°
2026-05-06 15:42 52.69976 10.39840 30716 ft 414 kts 184°
2026-05-06 15:42 52.67200 10.39465 30867 ft 404 kts 184°
2026-05-06 15:42 52.61645 10.38718 30744 ft 396 kts 184°
2026-05-06 15:43 52.58912 10.38350 30257 ft 393 kts 184°
2026-05-06 15:43 52.56186 10.37983 29740 ft 394 kts 184°
2026-05-06 15:43 52.53440 10.37616 29859 ft 399 kts 184°
2026-05-06 15:43 52.50664 10.37243 29803 ft 405 kts 185°
2026-05-06 15:44 52.45124 10.36504 29801 ft 400 kts 185°
2026-05-06 15:44 52.39579 10.35763 29800 ft 400 kts 185°
2026-05-06 15:45 52.34045 10.35028 29787 ft 400 kts 185°
2026-05-06 15:45 52.28531 10.34296 29782 ft 399 kts 185°
2026-05-06 15:46 52.23021 10.33565 29778 ft 398 kts 186°
2026-05-06 15:46 52.17484 10.32834 29771 ft 399 kts 186°
2026-05-06 15:47 52.11912 10.32099 29770 ft 399 kts 186°
2026-05-06 15:47 52.06409 10.31377 29771 ft 399 kts 186°
2026-05-06 15:48 52.00857 10.30647 29767 ft 399 kts 186°
2026-05-06 15:48 51.95334 10.29928 29756 ft 399 kts 187°
2026-05-06 15:49 51.89860 10.29212 29760 ft 398 kts 187°
2026-05-06 15:49 51.84355 10.28495 29758 ft 397 kts 187°
2026-05-06 15:50 51.78873 10.27784 29763 ft 396 kts 187°
2026-05-06 15:50 51.73401 10.27075 29761 ft 395 kts 187°
2026-05-06 15:51 51.67925 10.26368 29763 ft 394 kts 187°
2026-05-06 15:51 51.62457 10.25663 29773 ft 395 kts 187°
2026-05-06 15:52 51.57007 10.24963 29764 ft 393 kts 187°
2026-05-06 15:52 51.51574 10.24266 29764 ft 393 kts 187°
2026-05-06 15:53 51.46128 10.23569 29763 ft 392 kts 187°
2026-05-06 15:53 51.40725 10.22879 29762 ft 392 kts 187°
2026-05-06 15:54 51.35303 10.22190 29766 ft 391 kts 187°
2026-05-06 15:54 51.29918 10.21536 29753 ft 391 kts 181°
2026-05-06 15:55 51.24487 10.21709 29754 ft 391 kts 183°
2026-05-06 15:55 51.19067 10.21643 29758 ft 390 kts 184°
2026-05-06 15:56 51.13698 10.21542 29754 ft 389 kts 184°
2026-05-06 15:56 51.08278 10.21445 29764 ft 389 kts 184°
2026-05-06 15:57 51.02896 10.21351 29757 ft 386 kts 184°
2026-05-06 15:57 50.97551 10.21252 29751 ft 386 kts 184°
2026-05-06 15:58 50.92175 10.21157 29746 ft 387 kts 184°
2026-05-06 15:58 50.86817 10.21059 29746 ft 386 kts 184°
2026-05-06 15:59 50.81555 10.20276 29730 ft 380 kts 201°
2026-05-06 15:59 50.79287 10.18243 29763 ft 378 kts 219°
2026-05-06 15:59 50.77571 10.15120 29756 ft 381 kts 237°
2026-05-06 16:00 50.75364 10.07472 29767 ft 384 kts 242°
2026-05-06 16:00 50.74215 10.03725 29631 ft 378 kts 241°
2026-05-06 16:00 50.73063 10.00066 29347 ft 376 kts 241°
2026-05-06 16:01 50.71865 9.96306 29547 ft 386 kts 241°
2026-05-06 16:01 50.70649 9.92501 29430 ft 390 kts 241°
2026-05-06 16:01 50.68235 9.84984 29464 ft 385 kts 241°
2026-05-06 16:02 50.65820 9.77491 29462 ft 386 kts 240°
2026-05-06 16:02 50.63340 9.70000 29450 ft 384 kts 236°
2026-05-06 16:03 50.61558 9.66934 29447 ft 381 kts 217°
2026-05-06 16:03 50.59233 9.64987 29465 ft 384 kts 201°
2026-05-06 16:03 50.54208 9.62223 29453 ft 381 kts 202°
2026-05-06 16:04 50.51776 9.60778 28989 ft 377 kts 202°
2026-05-06 16:04 50.49389 9.59037 27869 ft 383 kts 213°
2026-05-06 16:04 50.47451 9.56181 26838 ft 389 kts 232°
2026-05-06 16:04 50.46240 9.52475 26240 ft 390 kts 251°
2026-05-06 16:05 50.45578 9.48379 26312 ft 384 kts 252°
2026-05-06 16:05 50.44873 9.44421 26128 ft 372 kts 252°
2026-05-06 16:05 50.44153 9.40526 25091 ft 381 kts 252°
2026-05-06 16:05 50.43410 9.36580 24165 ft 383 kts 252°
2026-05-06 16:06 50.42656 9.32592 23651 ft 377 kts 251°
2026-05-06 16:06 50.41919 9.28709 22997 ft 374 kts 251°
2026-05-06 16:06 50.41170 9.24799 22311 ft 373 kts 250°
2026-05-06 16:06 50.40287 9.20985 22133 ft 370 kts 248°
2026-05-06 16:07 50.39418 9.17259 22230 ft 363 kts 248°
2026-05-06 16:07 50.38557 9.13547 21573 ft 365 kts 248°
2026-05-06 16:07 50.37691 9.09822 21082 ft 367 kts 248°
2026-05-06 16:07 50.36833 9.06123 21296 ft 361 kts 248°
2026-05-06 16:08 50.35986 9.02486 20790 ft 359 kts 248°
2026-05-06 16:08 50.35121 8.98781 19967 ft 363 kts 249°
2026-05-06 16:08 50.34261 8.95098 19340 ft 361 kts 249°
2026-05-06 16:08 50.33393 8.91456 18762 ft 359 kts 246°
2026-05-06 16:09 50.32037 8.88223 18158 ft 355 kts 226°
2026-05-06 16:09 50.30077 8.86026 17569 ft 353 kts 206°
2026-05-06 16:09 50.27692 8.84958 16567 ft 365 kts 188°
2026-05-06 16:09 50.25145 8.85237 15543 ft 376 kts 166°
2026-05-06 16:10 50.22817 8.86951 15060 ft 372 kts 147°
2026-05-06 16:10 50.20954 8.89677 14445 ft 370 kts 136°
2026-05-06 16:10 50.18910 8.91956 14046 ft 357 kts 157°
2026-05-06 16:10 50.16575 8.92865 13840 ft 339 kts 179°
2026-05-06 16:11 50.14302 8.92429 13661 ft 323 kts 194°
2026-05-06 16:11 50.12079 8.92310 13453 ft 320 kts 172°
2026-05-06 16:11 50.10016 8.93501 13293 ft 321 kts 154°
2026-05-06 16:11 50.08036 8.95111 13134 ft 321 kts 154°
2026-05-06 16:12 50.06073 8.96711 12943 ft 320 kts 154°
2026-05-06 16:12 50.04093 8.98319 12780 ft 320 kts 154°
2026-05-06 16:12 50.02130 8.99928 12600 ft 319 kts 153°
2026-05-06 16:12 50.00404 9.02079 12383 ft 322 kts 131°
2026-05-06 16:13 49.99363 9.05094 12200 ft 325 kts 108°
2026-05-06 16:13 49.99118 9.08594 11697 ft 333 kts 86°
2026-05-06 16:13 49.99739 9.12096 10902 ft 341 kts 63°
2026-05-06 16:13 50.01044 9.15134 10419 ft 339 kts 54°
2026-05-06 16:14 50.02389 9.18063 10021 ft 334 kts 54°
2026-05-06 16:14 50.03709 9.20944 9979 ft 318 kts 54°
2026-05-06 16:14 50.04951 9.23664 9871 ft 307 kts 54°
2026-05-06 16:14 50.06192 9.26386 9340 ft 312 kts 54°
2026-05-06 16:15 50.07509 9.29071 8828 ft 314 kts 44°
2026-05-06 16:15 50.09307 9.30935 8241 ft 304 kts 18°
2026-05-06 16:15 50.11307 9.31423 7742 ft 284 kts 352°
2026-05-06 16:15 50.13110 9.30547 7253 ft 268 kts 324°
2026-05-06 16:16 50.14362 9.28601 6774 ft 256 kts 298°
2026-05-06 16:16 50.15171 9.26187 6227 ft 250 kts 294°
2026-05-06 16:16 50.15938 9.23749 5648 ft 246 kts 294°
2026-05-06 16:16 50.16652 9.21445 5606 ft 233 kts 294°
2026-05-06 16:17 50.17164 9.19122 5550 ft 230 kts 276°
2026-05-06 16:17 50.17147 9.16664 5496 ft 229 kts 257°
2026-05-06 16:17 50.16746 9.14251 5458 ft 229 kts 255°
2026-05-06 16:17 50.16312 9.11857 5391 ft 230 kts 253°
2026-05-06 16:18 50.15846 9.09500 5341 ft 229 kts 252°
2026-05-06 16:18 50.15352 9.07134 5275 ft 229 kts 252°
2026-05-06 16:18 50.14846 9.04800 5219 ft 229 kts 251°
2026-05-06 16:18 50.14319 9.02436 5160 ft 227 kts 251°
2026-05-06 16:19 50.13802 9.00160 5089 ft 217 kts 251°
2026-05-06 16:19 50.13308 8.98010 4945 ft 211 kts 251°
2026-05-06 16:19 50.12816 8.95882 4970 ft 201 kts 251°
2026-05-06 16:19 50.12369 8.93959 4926 ft 185 kts 252°
2026-05-06 16:20 50.11916 8.92003 4967 ft 192 kts 251°
2026-05-06 16:20 50.11478 8.90143 4711 ft 175 kts 251°
2026-05-06 16:20 50.11081 8.88460 4443 ft 162 kts 251°
2026-05-06 16:20 50.10701 8.86845 4214 ft 156 kts 252°
2026-05-06 16:21 50.10340 8.85315 4017 ft 145 kts 252°
2026-05-06 16:21 50.10001 8.83880 3803 ft 142 kts 252°
2026-05-06 16:21 50.09667 8.82465 3650 ft 137 kts 252°
2026-05-06 16:21 50.09340 8.81078 3456 ft 135 kts 253°
2026-05-06 16:22 50.09016 8.79709 3263 ft 135 kts 252°
2026-05-06 16:22 50.08694 8.78341 3076 ft 135 kts 253°
2026-05-06 16:22 50.08369 8.76974 2894 ft 135 kts 253°
2026-05-06 16:22 50.08041 8.75588 2700 ft 134 kts 253°
2026-05-06 16:23 50.07723 8.74244 2514 ft 134 kts 253°
2026-05-06 16:23 50.07400 8.72885 2326 ft 133 kts 254°
2026-05-06 16:23 50.07085 8.71561 2145 ft 130 kts 253°
2026-05-06 16:23 50.06767 8.70222 1959 ft 131 kts 254°
2026-05-06 16:24 50.06453 8.68898 1784 ft 131 kts 254°
2026-05-06 16:24 50.06141 8.67586 1605 ft 131 kts 253°
2026-05-06 16:24 50.05826 8.66265 1426 ft 132 kts 254°
2026-05-06 16:24 50.05549 8.65101 1273 ft 131 kts 253°
2026-05-06 16:25 50.05270 8.63926 1114 ft 129 kts 252°
2026-05-06 16:25 50.04993 8.62771 962 ft 130 kts 252°
2026-05-06 16:25 50.04724 8.61643 813 ft 130 kts 252°
2026-05-06 16:25 50.04454 8.60515 663 ft 130 kts 252°
2026-05-06 16:26 50.04166 8.59312 505 ft 130 kts 252°
2026-05-06 16:26 50.03889 8.58146 372 ft 127 kts 249°
2026-05-06 16:26 50.03670 8.57220 348 ft 75 kts 251°
2026-05-06 16:26 50.03582 8.56861 347 ft 43 kts 249°
2026-05-06 16:27 50.03533 8.56663 345 ft 18 kts 249°
2026-05-06 16:27 50.03487 8.56480 345 ft 20 kts 250°
2026-05-06 16:27 50.03442 8.56295 344 ft 21 kts 252°
2026-05-06 16:27 50.03435 8.56088 342 ft 21 kts 280°
2026-05-06 16:28 50.03458 8.55885 341 ft 20 kts 279°
2026-05-06 16:28 50.03478 8.55689 341 ft 19 kts 279°
2026-05-06 16:28 50.03490 8.55502 341 ft 18 kts 267°
2026-05-06 16:28 50.03457 8.55326 341 ft 17 kts 250°
2026-05-06 16:29 50.03416 8.55150 340 ft 17 kts 250°
2026-05-06 16:29 50.03375 8.54980 339 ft 17 kts 250°
2026-05-06 16:29 50.03334 8.54811 338 ft 17 kts 250°
2026-05-06 16:29 50.03293 8.54643 337 ft 18 kts 250°
2026-05-06 16:30 50.03283 8.54599 336 ft 2 kts 251°
2026-05-06 16:30 50.03279 8.54546 335 ft 13 kts 278°
2026-05-06 16:30 50.03323 8.54466 335 ft 6 kts 340°
2026-05-06 16:30 50.03360 8.54447 335 ft 6 kts 342°
2026-05-06 16:31 50.03424 8.54413 337 ft 14 kts 341°
2026-05-06 16:31 50.03534 8.54351 339 ft 21 kts 340°
2026-05-06 16:31 50.03626 8.54311 341 ft 8 kts
2026-05-06 16:31 50.03666 8.54351 342 ft 8 kts 65°
2026-05-06 16:32 50.03685 8.54426 342 ft 9 kts 69°
2026-05-06 16:32 50.03712 8.54539 342 ft 17 kts 70°
2026-05-06 16:32 50.03758 8.54732 345 ft 23 kts 70°
2026-05-06 16:32 50.03805 8.54927 347 ft 17 kts 69°
2026-05-06 16:33 50.03861 8.55023 349 ft 11 kts
2026-05-06 16:33 50.03897 8.55008 349 ft 0 kts 341°
2026-05-06 16:35 50.03931 8.54990 350 ft 12 kts 341°
2026-05-06 16:35 50.03986 8.54974 351 ft 7 kts
2026-05-06 16:35 50.04015 8.55018 352 ft 8 kts 62°
2026-05-06 16:35 50.04045 8.55127 356 ft 15 kts 69°
2026-05-06 16:36 50.04089 8.55308 358 ft 25 kts 70°
2026-05-06 16:36 50.04153 8.55573 359 ft 34 kts 69°
2026-05-06 16:36 50.04218 8.55844 360 ft 23 kts 69°
2026-05-06 16:36 50.04254 8.55948 361 ft 0 kts 37°
2026-05-06 16:37 50.04253 8.55946 361 ft 4 kts 37°
2026-05-06 16:38 50.04252 8.55946 361 ft 0 kts 37°